Location: Cruquius
(52.3348°N, 4.6319°E)
Time: 03:49:23
(UTC+00:00)

Cosmos 2366 rocket - Pass Details

Date: 12 May 2021
Orbit: 955 x 997 km, 82.9° (Epoch: 14 June)

Event Time Altitude Azimuth Distance (km) Brightness Sun altitude
Rises 22:09:17 0° 350° (N) 3,653 8.6 -16.7°
Reaches altitude 10° 22:11:48 10° 352° (N) 2,706 7.5 -16.9°
Maximum altitude 22:17:59 73° 78° (ENE) 1,013 4.0 -17.2°
Enters shadow 22:21:30 27° 157° (SSE) 1,751 4.7 -17.4°
